User: anonymous   Login
Location: Unspecified
(0.0000°N, 0.0000°E)
Time: 10:40:42
(UTC+00:00)
Language:

Skynet 4D - Orbit

View from above orbital plane
View from above orbital plane
View from above satellite
View from above satellite

Ground track
Ground track

The orbit data is extracted from the following two-line orbital elements,

1 25134U 98002A   18019.17896378  .00000027  00000-0  00000+0 0  9990
2 25134  10.7292  29.6681 0001144 238.3120 311.5719  0.99152573 72983
Epoch (UTC): 19 January 2018 04:17:42
Eccentricity: 0.0001144
inclination: 10.7292°
perigee height: 36098 km
apogee height: 36108 km
right ascension of ascending node: 29.6681°
argument of perigee: 238.3120°
revolutions per day: 0.99152573
mean anomaly at epoch: 311.5719°
orbit number at epoch: 7298

The dashed part of the orbit path shows where the satellite is in the earth's shadow,  

DLR